Location: Unspecified
(0.0000°N, 0.0000°E)
Time: 13:23:42
(UTC+00:00)

Vanguard 1 - Pass Details

Date: 10 October 2023
Orbit: 652 x 3828 km, 34.3° (Epoch: 05 December)

Event Time Altitude Azimuth Distance (km) Brightness Sun altitude
Exits shadow 04:11:07 - 222° (SW) 4,957 13.3 -23.8°
Reaches altitude 10° 04:14:06 10° 218° (SW) 3,949 12.9 -23.1°
Maximum altitude 04:22:38 40° 152° (SSE) 1,568 11.3 -21.0°
Drops below altitude 10° 04:27:51 10° 82° (E) 2,419 13.2 -19.7°
Sets 04:30:00 0° 74° (ENE) 3,177 13.9 -19.2°
